{"data":{"norad_id":46320,"intl_designator":"2020-061BA","name":"NAPA-1","alt_names":[],"object_type":"PAYLOAD","status":"ACTIVE","operator":null,"country":"THAI","launch_date":"2020-09-03","launch_site_code":"FRGUI","launch_vehicle":null,"mission":null,"orbit_class":"UNKNOWN","rcs_meters":null,"size_class":null,"mass_kg":null,"dimensions":null,"purposes":[],"wikipedia_slug":null,"has_3d_model":false,"image_url":null,"decayed_at":null,"tle_current":{"epoch":"2026-05-25T05:29:52.283040Z","epoch_age_seconds":51144,"freshness":"FRESH","line1":"1 46320U 20061BA  26145.22907735  .00059468  00000+0  60918-3 0  9995","line2":"2 46320  97.2479 218.7070 0001786 140.3901 219.7489 15.64800975318142","mean_motion":15.64800975,"eccentricity":0.0001786,"inclination_deg":97.2479,"raan_deg":218.707,"arg_perigee_deg":140.3901,"mean_anomaly_deg":219.7489,"bstar":0.00060918,"rev_number":31814,"period_min":92.024482538426,"perigee_km":372.60531514503,"apogee_km":375.01711104675,"semimajor_km":6751.9482130959,"source":"CELESTRAK","updated_at":"2026-05-25T13:37:56.290424Z"}}}